FW6530 Weather Reports


time (UTC)temp
C
wind
direction
speed
KPH
gust
KPH
rain 1hr
cm
rain 24hr
cm
rain mn
cm
humidity
%
barometer
mb
20260508014549 18 78 4.8 16.1 0.00 0.00 0.00 12 1018.6
20260508014024 18 72 6.4 16.1 0.00 0.00 0.00 12 1018.5
20260508013524 18 78 9.7 16.1 0.00 0.00 0.00 11 1018.4
20260508013043 18 116 4.8 19.3 0.00 0.00 0.00 12 1018.4
20260508012523 19 111 9.7 20.9 0.00 0.00 0.00 11 1018.4
20260508012025 19 92 9.7 20.9 0.00 0.00 0.00 11 1018.4
20260508011541 19 125 9.7 17.7 0.00 0.00 0.00 11 1018.3
20260508011024 19 127 6.4 22.5 0.00 0.00 0.00 11 1018.3
20260508010524 20 107 9.7 22.5 0.00 0.00 0.00 11 1018.4
20260508010038 20 135 8.0 17.7 0.00 0.00 0.00 12 1018.4
20260508005527 20 128 9.7 19.3 0.00 0.00 0.00 12 1018.4
20260508005025 20 74 9.7 19.3 0.00 0.00 0.00 12 1018.4
20260508004538 20 59 4.8 19.3 0.00 0.00 0.00 12 1018.4
20260508004022 20 158 8.0 19.3 0.00 0.00 0.00 11 1018.3
20260508003527 20 144 6.4 19.3 0.00 0.00 0.00 11 1018.4
20260508003054 20 99 11.3 19.3 0.00 0.00 0.00 12 1018.4
20260508002527 20 96 8.0 22.5 0.00 0.00 0.00 11 1018.5
20260508002027 20 126 9.7 25.7 0.00 0.00 0.00 11 1018.6
20260508001536 21 111 11.3 25.7 0.00 0.00 0.00 11 1018.6
20260508001024 21 192 4.8 16.1 0.00 0.00 0.00 11 1018.5
20260508000525 21 186 3.2 20.9 0.00 0.00 0.00 12 1018.5
20260508000041 21 129 9.7 20.9 0.00 0.00 0.00 12 1018.6
20260507235525 21 71 4.8 20.9 0.00 0.00 0.00 13 1018.5
20260507235024 20 114 4.8 17.7 0.00 0.00 0.00 12 1018.6
20260507234539 20 115 6.4 20.9 0.00 0.00 0.00 13 1018.7
20260507234027 20 119 11.3 20.9 0.00 0.00 0.00 13 1018.7
20260507233524 20 117 11.3 24.1 0.00 0.00 0.00 14 1018.8
20260507233038 20 84 11.3 24.1 0.00 0.00 0.00 14 1018.8
20260507232523 20 97 9.7 25.7 0.00 0.00 0.00 15 1018.8
20260507232023 21 107 9.7 25.7 0.00 0.00 0.00 16 1018.7
20260507231540 21 115 4.8 20.9 0.00 0.00 0.00 16 1018.7
20260507231028 20 188 8.0 19.3 0.00 0.00 0.00 16 1018.8
20260507230523 20 186 9.7 24.1 0.00 0.00 0.00 16 1018.9
20260507230038 20 167 12.9 29.0 0.00 0.00 0.00 17 1018.8
20260507225528 20 111 9.7 29.0 0.00 0.00 0.00 18 1018.8
20260507225024 21 182 11.3 24.1 0.00 0.00 0.00 18 1018.7
20260507224557 21 209 11.3 24.1 0.00 0.00 0.00 19 1018.7
20260507224022 21 184 11.3 22.5 0.00 0.00 0.00 19 1018.8
20260507223524 21 173 6.4 19.3 0.00 0.00 0.00 18 1018.8
20260507223041 21 135 11.3 19.3 0.00 0.00 0.00 19 1018.8
20260507222523 20 226 6.4 20.9 0.00 0.00 0.00 18 1018.9
20260507222024 20 350 6.4 20.9 0.00 0.00 0.00 18 1019.0
20260507221537 20 62 6.4 17.7 0.00 0.00 0.00 18 1019.1
20260507221027 21 360 4.8 22.5 0.00 0.00 0.00 18 1019.2
20260507220527 21 194 11.3 22.5 0.00 0.00 0.00 18 1019.2
20260507220037 20 183 4.8 20.9 0.00 0.00 0.00 17 1019.3
20260507215528 20 80 9.7 20.9 0.00 0.00 0.00 16 1019.3
20260507215023 20 107 8.0 22.5 0.00 0.00 0.00 15 1019.4
20260507214536 20 94 8.0 22.5 0.00 0.00 0.00 16 1019.5
20260507214025 20 157 12.9 22.5 0.00 0.00 0.00 15 1019.6
20260507213523 20 180 11.3 19.3 0.00 0.00 0.00 15 1019.6
20260507213041 20 136 6.4 19.3 0.00 0.00 0.00 14 1019.7
20260507212524 20 225 1.6 19.3 0.00 0.00 0.00 14 1019.7
20260507212020 20 242 6.4 22.5 0.00 0.00 0.00 13 1020.0
20260507211550 20 143 11.3 27.4 0.00 0.00 0.00 12 1019.8
20260507211024 20 196 11.3 27.4 0.00 0.00 0.00 13 1020.0
20260507210522 20 177 6.4 24.1 0.00 0.00 0.00 12 1020.0
20260507210042 20 157 12.9 24.1 0.00 0.00 0.00 11 1020.1
20260507205524 20 208 11.3 24.1 0.00 0.00 0.00 11 1020.2
20260507205028 20 173 11.3 20.9 0.00 0.00 0.00 11 1020.2
20260507204543 20 180 8.0 20.9 0.00 0.00 0.00 10 1020.2
20260507204024 20 251 6.4 20.9 0.00 0.00 0.00 11 1020.3
20260507203524 20 194 4.8 25.7 0.00 0.00 0.00 10 1020.4
20260507203036 20 187 9.7 25.7 0.00 0.00 0.00 10 1020.6
20260507202522 20 193 6.4 22.5 0.00 0.00 0.00 10 1020.5
20260507202024 20 251 8.0 22.5 0.00 0.00 0.00 10 1020.7
20260507201539 20 177 6.4 19.3 0.00 0.00 0.00 12 1020.7
20260507201025 20 240 6.4 14.5 0.00 0.00 0.00 9 1020.7
20260507200524 19 173 4.8 24.1 0.00 0.00 0.00 11 1020.7
20260507200038 19 253 8.0 29.0 0.00 0.00 0.00 10 1020.7
20260507195522 19 178 11.3 29.0 0.00 0.00 0.00 10 1020.8
20260507195024 19 177 12.9 27.4 0.00 0.00 0.00 12 1020.9
20260507194541 19 259 6.4 29.0 0.00 0.00 0.00 10 1020.9
20260507194023 19 229 11.3 29.0 0.00 0.00 0.00 9 1020.8
20260507193524 19 147 8.0 22.5 0.00 0.00 0.00 11 1020.9
20260507193036 19 251 6.4 29.0 0.00 0.00 0.00 11 1021.0
20260507192524 18 239 11.3 29.0 0.00 0.00 0.00 13 1021.1
20260507192024 18 204 8.0 29.0 0.00 0.00 0.00 13 1021.1
20260507191853 18 206 12.9 29.0 0.00 0.00 0.00 12 1021.1
20260507191020 18 182 11.3 24.1 0.00 0.00 0.00 12 1021.2
20260507190524 18 180 6.4 22.5 0.00 0.00 0.00 15 1021.3
20260507190036 18 172 9.7 22.5 0.00 0.00 0.00 14 1021.3
20260507185523 18 256 6.4 20.9 0.00 0.00 0.00 16 1021.5
20260507185023 18 244 6.4 25.7 0.00 0.00 0.00 16 1021.5
20260507184538 18 198 12.9 25.7 0.00 0.00 0.00 15 1021.4
20260507184021 17 196 8.0 22.5 0.00 0.00 0.00 16 1021.6
20260507183521 17 271 8.0 19.3 0.00 0.00 0.00 17 1021.6
20260507183041 17 192 9.7 19.3 0.00 0.00 0.00 18 1021.6
20260507182524 17 178 9.7 19.3 0.00 0.00 0.00 15 1021.6
20260507182024 17 178 8.0 29.0 0.00 0.00 0.00 15 1021.8
20260507181540 17 211 12.9 29.0 0.00 0.00 0.00 17 1021.8
20260507181024 17 196 9.7 24.1 0.00 0.00 0.00 21 1021.8
20260507180521 16 193 8.0 24.1 0.00 0.00 0.00 21 1022.0
20260507180043 16 236 8.0 24.1 0.00 0.00 0.00 24 1022.0
20260507175528 16 240 9.7 29.0 0.00 0.00 0.00 24 1022.0
20260507175026 16 209 11.3 29.0 0.00 0.00 0.00 26 1022.1
20260507174543 15 240 8.0 24.1 0.00 0.00 0.00 28 1022.2
20260507174026 15 229 8.0 24.1 0.00 0.00 0.00 28 1022.3
20260507173525 15 240 9.7 25.7 0.00 0.00 0.00 30 1022.5
20260507173039 15 256 8.0 25.7 0.00 0.00 0.00 33 1022.4
20260507172526 15 234 9.7 24.1 0.00 0.00 0.00 32 1022.6
20260507172025 15 261 8.0 22.5 0.00 0.00 0.00 35 1022.6
20260507171538 14 236 4.8 22.5 0.00 0.00 0.00 36 1022.7
20260507171025 13 196 9.7 24.1 0.00 0.00 0.00 36 1022.7
20260507170525 13 215 8.0 24.1 0.00 0.00 0.00 37 1022.8
20260507170038 13 203 11.3 24.1 0.00 0.00 0.00 38 1022.8
20260507165526 13 257 9.7 24.1 0.00 0.00 0.00 38 1022.8
20260507165025 12 200 11.3 24.1 0.00 0.00 0.00 39 1022.9
20260507164536 12 173 9.7 19.3 0.00 0.00 0.00 39 1022.8
20260507164025 12 262 6.4 24.1 0.00 0.00 0.00 42 1022.9
20260507163525 11 219 11.3 24.1 0.00 0.00 0.00 42 1023.1
20260507163041 11 184 8.0 22.5 0.00 0.00 0.00 43 1023.1
20260507162529 11 196 11.3 22.5 0.00 0.00 0.00 43 1023.1
20260507162028 11 273 8.0 19.3 0.00 0.00 0.00 46 1023.3
20260507161540 10 271 8.0 22.5 0.00 0.00 0.00 46 1023.4
20260507161025 10 243 6.4 25.7 0.00 0.00 0.00 48 1023.5
20260507160526 10 276 9.7 25.7 0.00 0.00 0.00 48 1023.5
20260507160040 10 208 8.0 24.1 0.00 0.00 0.00 49 1023.5
20260507155527 9 189 8.0 24.1 0.00 0.00 0.00 50 1023.6
20260507155025 9 232 8.0 20.9 0.00 0.00 0.00 49 1023.5
20260507154541 9 218 6.4 20.9 0.00 0.00 0.00 48 1023.7
20260507154025 9 220 9.7 20.9 0.00 0.00 0.00 50 1023.7
20260507153525 9 205 8.0 19.3 0.00 0.00 0.00 49 1023.8
20260507153038 8 230 8.0 24.1 0.00 0.00 0.00 49 1023.8
20260507152526 8 178 6.4 24.1 0.00 0.00 0.00 50 1023.7
20260507152025 8 202 8.0 22.5 0.00 0.00 0.00 49 1023.7
20260507151535 8 252 9.7 22.5 0.00 0.00 0.00 50 1023.6
20260507151026 8 188 8.0 20.9 0.00 0.00 0.00 51 1023.6
20260507150525 8 195 6.4 16.1 0.00 0.00 0.00 52 1023.6
20260507150041 8 169 6.4 16.1 0.00 0.00 0.00 54 1023.6
20260507145525 7 173 6.4 14.5 0.00 0.00 0.00 56 1023.7
20260507145025 7 256 4.8 17.7 0.00 0.00 0.00 57 1023.8
20260507144539 7 213 6.4 17.7 0.00 0.00 0.00 57 1023.9
20260507144044 7 243 4.8 12.9 0.00 0.00 0.00 59 1024.0
20260507143525 7 247 4.8 16.1 0.00 0.00 0.00 59 1024.0
20260507143039 7 286 4.8 16.1 0.00 0.00 0.00 59 1024.1
20260507142526 7 243 6.4 14.5 0.00 0.00 0.00 59 1024.1
20260507142025 6 231 4.8 14.5 0.00 0.00 0.00 61 1024.1
20260507141539 6 240 4.8 14.5 0.00 0.00 0.00 64 1024.1
20260507141025 6 287 4.8 14.5 0.00 0.00 0.00 66 1024.2
20260507140525 6 257 4.8 11.3 0.00 0.00 0.00 66 1024.2
20260507140047 6 234 4.8 11.3 0.00 0.00 0.00 68 1024.3
20260507135525 6 225 3.2 11.3 0.00 0.00 0.00 70 1024.3
20260507135026 5 248 3.2 9.7 0.00 0.00 0.00 71 1024.3
20260507134535 5 282 4.8 11.3 0.00 0.00 0.00 71 1024.3
20260507134027 5 289 3.2 11.3 0.00 0.00 0.00 72 1024.3
20260507133527 4 257 1.6 6.4 0.00 0.00 0.00 74 1024.3
20260507133039 4 293 3.2 6.4 0.00 0.00 0.00 75 1024.3
20260507132525 3 304 3.2 6.4 0.00 0.00 0.00 76 1024.2
20260507132025 3 0 0.0 4.8 0.00 0.00 0.00 79 1024.2
20260507131544 2 306 1.6 4.8 0.00 0.00 0.00 79 1024.3
20260507131026 2 306 1.6 4.8 0.00 0.00 0.00 80 1024.3
20260507130523 1 306 0.0 4.8 0.00 0.00 0.00 82 1024.4
20260507130042 1 306 0.0 3.2 0.00 0.00 0.00 83 1024.4
20260507125525 0 306 0.0 4.8 0.00 0.00 0.00 85 1024.3
20260507125024 0 0 0.0 4.8 0.00 0.00 0.00 86 1024.4
20260507124540 0 306 0.0 4.8 0.00 0.00 0.00 86 1024.4
20260507124028 -1 0 0.0 4.8 0.00 0.00 0.00 86 1024.4
20260507123525 -1 306 1.6 4.8 0.00 0.00 0.00 86 1024.3
20260507123036 -1 306 1.6 6.4 0.00 0.00 0.00 86 1024.3
20260507122525 -1 306 3.2 6.4 0.00 0.00 0.00 86 1024.3
20260507122027 -1 306 3.2 8.0 0.00 0.00 0.00 87 1024.3
20260507121541 -1 307 3.2 8.0 0.00 0.00 0.00 88 1024.3
20260507121026 -1 309 1.6 8.0 0.00 0.00 0.00 89 1024.3
20260507120527 -1 309 4.8 11.3 0.00 0.00 0.00 90 1024.4
20260507120043 -1 315 4.8 11.3 0.00 0.00 0.00 90 1024.3
20260507115527 -2 31 3.2 6.4 0.00 0.00 0.00 90 1024.3
20260507115028 -2 31 1.6 6.4 0.00 0.00 0.00 90 1024.3
20260507114539 -2 32 3.2 6.4 0.00 0.00 0.00 90 1024.4
20260507114026 -2 34 1.6 4.8 0.00 0.00 0.00 89 1024.3
20260507113525 -2 34 1.6 4.8 0.00 0.00 0.00 89 1024.3
20260507113041 -2 34 3.2 4.8 0.00 0.00 0.00 89 1024.3
20260507112526 -2 0 0.0 1.6 0.00 0.00 0.00 89 1024.2
20260507112028 -2 0 0.0 4.8 0.00 0.00 0.00 88 1024.2
20260507111544 -2 35 1.6 4.8 0.00 0.00 0.00 88 1024.1
20260507111025 -2 0 0.0 0.0 0.00 0.00 0.00 88 1024.2
20260507110525 -2 0 0.0 1.6 0.00 0.00 0.00 88 1024.2
20260507110035 -2 0 0.0 4.8 0.00 0.00 0.00 88 1024.3
20260507105525 -2 0 0.0 4.8 0.00 0.03 0.00 88 1024.2
20260507105025 -2 36 0.0 3.2 0.00 0.03 0.00 87 1024.1
20260507104536 -2 36 0.0 1.6 0.00 0.03 0.00 87 1024.1
20260507104025 -2 0 0.0 4.8 0.00 0.03 0.00 87 1024.3
20260507103525 -1 0 0.0 4.8 0.00 0.03 0.00 87 1024.3
20260507103040 -1 36 0.0 6.4 0.00 0.03 0.00 87 1024.4
20260507102525 -1 34 0.0 6.4 0.00 0.03 0.00 87 1024.3
20260507102026 -1 34 3.2 6.4 0.00 0.03 0.00 87 1024.3
20260507101557 -1 71 1.6 3.2 0.00 0.03 0.00 88 1024.3
20260507101025 -1 0 0.0 4.8 0.00 0.03 0.00 87 1024.3
20260507100524 -1 0 1.6 4.8 0.00 0.03 0.00 87 1024.3
20260507100039 -1 72 1.6 4.8 0.00 0.03 0.00 87 1024.2
20260507095525 -1 72 1.6 4.8 0.00 0.03 0.00 86 1024.3
20260507095024 -1 73 1.6 4.8 0.00 0.03 0.00 86 1024.3
20260507094536 -1 0 0.0 0.0 0.00 0.03 0.00 86 1024.3
20260507094025 -1 0 0.0 0.0 0.00 0.03 0.00 85 1024.4
20260507093525 -1 0 0.0 0.0 0.00 0.03 0.00 85 1024.4
20260507093035 -1 0 0.0 0.0 0.00 0.03 0.00 84 1024.3
20260507092532 -1 0 0.0 0.0 0.00 0.03 0.00 85 1024.3
20260507092024 -1 0 0.0 0.0 0.00 0.03 0.00 84 1024.3
20260507091555 -1 0 0.0 0.0 0.00 0.03 0.00 84 1024.4
20260507091025 -1 0 0.0 0.0 0.00 0.03 0.00 84 1024.3
20260507090525 -1 0 0.0 0.0 0.00 0.03 0.00 85 1024.4
20260507090053 -1 0 0.0 0.0 0.00 0.03 0.00 84 1024.4
20260507085524 -1 0 0.0 0.0 0.00 0.03 0.00 84 1024.3
20260507085025 -1 0 0.0 0.0 0.00 0.03 0.00 83 1024.3
20260507084538 -1 0 0.0 3.2 0.00 0.03 0.00 83 1024.3
20260507084025 -1 0 0.0 3.2 0.00 0.03 0.00 82 1024.1
20260507083525 -1 0 0.0 3.2 0.00 0.03 0.00 83 1024.2
20260507083040 -1 0 0.0 0.0 0.00 0.03 0.00 82 1024.2
20260507082525 -1 0 0.0 3.2 0.00 0.03 0.00 81 1024.2
20260507082025 0 0 0.0 3.2 0.00 0.03 0.00 80 1024.1
20260507081549 0 74 0.0 3.2 0.00 0.03 0.00 79 1024.0
20260507081025 0 75 0.0 3.2 0.00 0.03 0.00 78 1024.1
20260507080525 0 0 0.0 1.6 0.00 0.03 0.00 76 1024.1
20260507080040 0 0 0.0 1.6 0.00 0.03 0.00 75 1024.0
20260507075523 0 0 0.0 1.6 0.00 0.03 0.00 74 1024.0
20260507075025 1 0 0.0 1.6 0.00 0.03 0.00 74 1024.0
20260507074541 1 0 0.0 1.6 0.00 0.03 0.00 73 1023.9
20260507074024 1 0 0.0 3.2 0.00 0.03 0.00 72 1023.8
20260507073525 1 75 0.0 3.2 0.00 0.03 0.00 71 1023.8
20260507073049 2 0 0.0 3.2 0.00 0.03 0.00 70 1023.7
20260507072525 2 0 0.0 11.3 0.00 0.03 0.00 69 1023.6
20260507072025 2 0 0.0 11.3 0.00 0.03 0.00 69 1023.5
20260507071535 2 40 3.2 9.7 0.00 0.03 0.00 68 1023.5
20260507071025 2 51 3.2 6.4 0.00 0.03 0.00 67 1023.4
20260507070524 2 55 0.0 11.3 0.00 0.03 0.00 67 1023.4
20260507070107 2 54 4.8 11.3 0.00 0.03 0.00 69 1023.4
20260507065525 1 42 1.6 8.0 0.00 0.03 0.00 71 1023.3
20260507065022 0 341 3.2 8.0 0.00 0.03 0.00 75 1023.3
20260507064547 0 259 3.2 6.4 0.00 0.03 0.00 76 1023.2
20260507064024 0 235 0.0 4.8 0.00 0.03 0.00 76 1023.1
20260507063523 0 0 0.0 3.2 0.00 0.03 0.00 76 1023.1
20260507063038 0 232 0.0 1.6 0.00 0.03 0.00 76 1023.0
20260507062525 0 0 0.0 1.6 0.00 0.03 0.00 76 1022.9
20260507062025 1 0 0.0 0.0 0.00 0.03 0.00 75 1022.9
20260507061538 1 0 0.0 1.6 0.00 0.03 0.00 74 1022.9
20260507061025 1 0 0.0 1.6 0.00 0.03 0.00 73 1022.9
20260507060525 1 0 0.0 0.0 0.00 0.03 0.00 72 1022.8
20260507060036 1 0 0.0 0.0 0.00 0.03 0.00 72 1022.8
20260507055525 2 0 0.0 3.2 0.00 0.03 0.03 71 1022.7
20260507055029 2 0 0.0 3.2 0.00 0.03 0.03 71 1022.7
20260507054536 2 0 1.6 4.8 0.00 0.03 0.03 71 1022.7
20260507054026 2 233 1.6 4.8 0.00 0.03 0.03 72 1022.6
20260507053526 2 233 3.2 4.8 0.00 0.03 0.03 72 1022.6
20260507053042 2 233 3.2 4.8 0.00 0.03 0.03 72 1022.6
20260507052524 2 233 1.6 4.8 0.00 0.03 0.03 72 1022.6
20260507052024 2 233 1.6 4.8 0.00 0.03 0.03 72 1022.5
20260507051541 2 233 1.6 6.4 0.00 0.03 0.03 72 1022.5
20260507051025 2 0 3.2 6.4 0.00 0.03 0.03 71 1022.5
20260507050525 2 157 3.2 4.8 0.00 0.03 0.03 71 1022.5
20260507050038 2 152 1.6 4.8 0.00 0.03 0.03 71 1022.4
20260507045527 2 152 1.6 3.2 0.00 0.13 0.03 70 1022.4
20260507045025 2 152 0.0 3.2 0.00 0.13 0.03 69 1022.2
20260507044545 3 0 0.0 1.6 0.00 0.13 0.03 68 1022.3
20260507044024 3 0 0.0 4.8 0.00 0.13 0.03 67 1022.2
20260507043525 3 0 0.0 4.8 0.00 0.13 0.03 66 1022.2
20260507043040 3 151 1.6 3.2 0.00 0.13 0.03 65 1022.1
20260507042526 4 0 0.0 3.2 0.00 0.13 0.03 64 1022.0
20260507042025 5 150 0.0 4.8 0.00 0.13 0.03 63 1022.0
20260507041536 5 0 1.6 4.8 0.00 0.13 0.03 61 1022.0
20260507041025 5 150 3.2 4.8 0.00 0.13 0.03 60 1021.8
20260507040525 5 150 3.2 4.8 0.00 0.13 0.03 60 1021.8
20260507040049 5 150 1.6 3.2 0.00 0.13 0.03 59 1021.8
20260507035524 5 150 1.6 4.8 0.00 0.13 0.03 59 1021.7
20260507035025 6 0 0.0 4.8 0.00 0.13 0.03 57 1021.6
20260507034538 6 150 1.6 4.8 0.00 0.13 0.03 56 1021.5
20260507034024 6 148 0.0 3.2 0.00 0.13 0.03 57 1021.6
20260507033524 6 0 0.0 3.2 0.00 0.13 0.03 57 1021.4
20260507033038 6 0 0.0 6.4 0.00 0.13 0.03 55 1021.3
20260507032523 6 148 0.0 6.4 0.00 0.13 0.03 53 1021.3
20260507032024 6 137 1.6 6.4 0.00 0.13 0.03 57 1021.1
20260507031537 7 169 0.0 3.2 0.00 0.13 0.03 55 1021.0
20260507031029 7 0 0.0 3.2 0.00 0.13 0.03 53 1020.9
20260507030525 8 0 0.0 3.2 0.00 0.13 0.03 51 1020.9
20260507030040 8 0 0.0 3.2 0.00 0.13 0.03 49 1020.8
20260507025522 8 0 0.0 3.2 0.00 0.13 0.03 48 1020.7
20260507025025 8 0 0.0 8.0 0.00 0.13 0.03 47 1020.7
20260507024535 9 0 1.6 8.0 0.00 0.13 0.03 45 1020.5
20260507024024 9 169 1.6 9.7 0.00 0.13 0.03 44 1020.4
20260507023527 9 165 3.2 12.9 0.00 0.13 0.03 44 1020.4
20260507023035 9 151 4.8 12.9 0.00 0.13 0.03 44 1020.2
20260507022523 10 150 6.4 14.5 0.00 0.13 0.03 43 1020.1
20260507022022 10 170 6.4 16.1 0.00 0.13 0.03 42 1020.1
20260507021540 10 169 6.4 19.3 0.00 0.13 0.03 42 1020.0
20260507021021 10 136 9.7 22.5 0.00 0.13 0.03 41 1019.9
20260507020526 10 158 9.7 22.5 0.00 0.13 0.03 40 1019.9
20260507020040 11 134 9.7 24.1 0.00 0.13 0.03 40 1019.8
20260507015525 11 164 12.9 24.1 0.00 0.13 0.03 40 1019.8
20260507015023 11 159 11.3 25.7 0.00 0.13 0.03 40 1019.7